{"data":{"norad_id":68146,"intl_designator":"2026-049E","name":"STARLINK-36980","alt_names":[],"object_type":"PAYLOAD","status":"ACTIVE","operator":null,"country":"US","launch_date":"2026-03-13","launch_site_code":"AFWTR","launch_vehicle":null,"mission":null,"orbit_class":"UNKNOWN","rcs_meters":null,"size_class":null,"mass_kg":null,"dimensions":null,"purposes":["comms"],"wikipedia_slug":null,"has_3d_model":false,"image_url":null,"decayed_at":null,"tle_current":{"epoch":"2026-09-20T03:55:41.902752Z","epoch_age_seconds":84899,"freshness":"FRESH","line1":"1 68146U 26049E   26263.16367943  .00015641  00000+0  48577-3 0  9994","line2":"2 68146  97.2846 283.1893 0001588  94.1682 265.9743 15.33447074 29453","mean_motion":15.33447074,"eccentricity":0.0001588,"inclination_deg":97.2846,"raan_deg":283.1893,"arg_perigee_deg":94.1682,"mean_anomaly_deg":265.9743,"bstar":0.00048577,"rev_number":2945,"period_min":93.906077647907,"perigee_km":464.45022828848,"apogee_km":466.62377915206,"semimajor_km":6843.6740037203,"source":"CELESTRAK","updated_at":"2026-09-20T09:00:43.791944Z"}}}